Location: Newark
(23.1300°N, 73.6109°E)
Time: 01:50:36
(UTC+00:00)

Envisat - Pass Details

Date: 27 July 2021
Orbit: 764 x 766 km, 98.2° (Epoch: 19 September)

Event Time Altitude Azimuth Distance (km) Brightness Sun altitude
Rises 22:59:11 0° 42° (NE) 3,227 7.6 -20.4°
Reaches altitude 10° 23:03:07 10° 73° (ENE) 2,297 6.6 -19.6°
Maximum altitude 23:05:00 12° 95° (E) 2,159 6.1 -19.3°
Drops below altitude 10° 23:06:53 10° 118° (ESE) 2,294 5.9 -18.9°
Sets 23:10:46 0° 148° (SSE) 3,215 6.2 -18.1°
